Regional Weather Roundup
Issued by NWS

Home | Current Version | Previous Version | Graphics & Text | Print | Product List | Glossary On
Versions: 1 2 3 4 5 6 7 8 9 10 11 12 13 14 15 16 17 18 19 20 21 22 23 24 25 26 27 28 29 30 31 32 33 34 35 36 37 38 39 40 41 42 43 44 45 46 47 48 49 50
000
ASUS45 KBOI 271710
RWRID

IDAHO REGIONAL WEATHER ROUNDUP
NATIONAL WEATHER SERVICE BOISE ID
1100 AM MDT WED MAY 27 2015

NOTE: "FAIR" INDICATES FEW OR NO CLOUDS BELOW 12000 FEET
WITH NO SIGNIFICANT WEATHER AND/OR OBSTRUCTIONS TO VISIBILITY

IDZ012-014-271800-
SOUTHWEST IDAHO


CITY           SKY/WX    TMP DP  RH WIND       PRES   REMARKS
BOISE          MOSUNNY   65  48  54 SW5       30.01F
CALDWELL       MOSUNNY   64  46  52 N5        30.02F
MOUNTAIN HOME  MOSUNNY   66  45  45 SW6       30.01S
$$

IDZ016-017-271800-
SOUTHCENTRAL IDAHO


CITY           SKY/WX    TMP DP  RH WIND       PRES   REMARKS
BURLEY         SUNNY     63  47  55 W6        30.02F
JEROME         SUNNY     61  46  57 VRB5      30.04S
TWIN FALLS     SUNNY     66  44  45 W9        30.02S
$$

IDZ019>023-271800-
SOUTHEAST IDAHO


CITY           SKY/WX    TMP DP  RH WIND       PRES   REMARKS
IDAHO FALLS    PTSUNNY   57  48  72 VRB3      30.07F
POCATELLO      PTSUNNY   60  51  72 E9        30.06S
REXBURG        MOSUNNY   57  48  72 SW7       30.07F
$$

IDZ006-010-011-018-031-032-271800-
CENTRAL IDAHO MOUNTAINS


CITY           SKY/WX    TMP DP  RH WIND       PRES   REMARKS
MCCALL         PTSUNNY   55  41  59 S7        30.03F
HAILEY         LGT RAIN  48  43  81 N9        30.12R
STANLEY          N/A     50  37  61 S6        30.11F
SALMON         CLOUDY    55  46  71 NW5       30.04S
CHALLIS        PTSUNNY   53  44  71 CALM      30.05F
$$

IDZ002-004-006-007-026-271800-
NORTHERN IDAHO


CITY           SKY/WX    TMP DP  RH WIND       PRES   REMARKS
LEWISTON       MOSUNNY   65  49  56 CALM      30.01F
LOWELL           N/A     65  47  52 CALM      29.99F
COEUR D`ALENE  PTSUNNY   59  50  72 CALM      30.02S
MULLAN PASS    PTSUNNY   49  43  80 CALM      30.08R
$$


USA.gov is the U.S. government's official web portal to all federal, state and local government web resources and services.